Quincy, IL

11:42 AM CDT on September 18, 2019 (GMT -0500)
Quincy Regional-Baldwin

Weather History for KUIN - July, 2019

Change the Weather History Date:

Wednesday, July 24, 2019

  Actual Average Record
Temperature  
Mean Temperature 73 °F 76 °F  
Max Temperature 84 °F 86 °F 111 °F (1934)
Min Temperature 62 °F 66 °F 52 °F (1904)
Degree Days  
Heating Degree Days 0 0  
Month to date heating degree days 0  
Since 1 June heating degree days 16  
Since 1 July heating degree days 0  
Cooling Degree Days 8 11  
Month to date cooling degree days 264  
Year to date cooling degree days 577  
Since 1 June cooling degree days 491  
Growing Degree Days 23 (Base 50)    
Moisture  
Dew Point 60 °F    
Average Humidity 65    
Maximum Humidity 90    
Minimum Humidity 41    
Precipitation  
Precipitation 0.00 in 0.12 in 3.10 in (1968)
Month to date precipitation 3.19  
Year to date precipitation 21.27  
Sea Level Pressure  
Sea Level Pressure 30.15 in    
Wind  
Wind Speed 5 mph (North)    
Max Wind Speed 9 mph    
Max Gust Speed -    
Visibility 10 miles    
Events      
T = Trace of Precipitation, MM = Missing Value Source: NWS Daily Summary

Daily Weather History Graph

Daily Weather History Graph

Search for Another Location

Airport or City:

Astronomy

Jul. 24, 2019 Rise Set
Actual Time 5:55 AM CDT 8:26 PM CDT
Civil Twilight 5:24 AM CDT 8:57 PM CDT
Nautical Twilight 4:46 AM CDT 9:35 PM CDT
Astronomical Twilight 4:03 AM CDT 10:18 PM CDT
Moon 12:14 AM CDT (7/24) 1:07 PM CDT (7/24)
Length of Visible Light 15h 32m
Length of Day
14h 30m
Waning Gibbous, 53% of the Moon is Illuminated
Jul 24
Waning Gibbous
Jul 24
Last Quarter
Jul 31
New
Aug 7
First Quarter
Aug 15
Full

Hourly Weather History & Observations

Time (CDT) Temp. Heat Index Dew Point Humidity Pressure Visibility Wind Dir Wind Speed Gust Speed Precip Events Conditions
12:54 AM 66.0 °F - 60.1 °F 81% 30.14 in 10.0 mi NW 5.8 mph - N/A   Clear
1:54 AM 64.9 °F - 60.1 °F 84% 30.14 in 10.0 mi NW 6.9 mph - N/A   Clear
2:54 AM 64.0 °F - 60.1 °F 87% 30.15 in 10.0 mi NW 6.9 mph - N/A   Clear
3:54 AM 63.0 °F - 60.1 °F 90% 30.14 in 10.0 mi WNW 6.9 mph - N/A   Clear
4:54 AM 63.0 °F - 59.0 °F 87% 30.16 in 10.0 mi NNW 3.5 mph - N/A   Clear
5:54 AM 62.1 °F - 57.9 °F 86% 30.17 in 10.0 mi NNE 4.6 mph - N/A   Clear
6:54 AM 64.0 °F - 60.1 °F 87% 30.17 in 10.0 mi NW 4.6 mph - N/A   Clear
7:54 AM 68.0 °F - 61.0 °F 78% 30.19 in 10.0 mi NNW 5.8 mph - N/A   Clear
8:54 AM 73.0 °F - 61.0 °F 66% 30.20 in 10.0 mi NNE 6.9 mph - N/A   Clear
9:54 AM 77.0 °F - 61.0 °F 58% 30.20 in 10.0 mi North 4.6 mph - N/A   Clear
10:54 AM 79.0 °F - 61.0 °F 54% 30.19 in 10.0 mi NE 6.9 mph - N/A   Clear
11:54 AM 82.0 °F 82.4 °F 60.1 °F 47% 30.17 in 10.0 mi North 5.8 mph - N/A   Clear
12:54 PM 82.0 °F 82.1 °F 59.0 °F 45% 30.17 in 10.0 mi NW 3.5 mph - N/A   Partly Cloudy
1:54 PM 81.0 °F 81.0 °F 57.0 °F 44% 30.15 in 10.0 mi NNE 6.9 mph - N/A   Mostly Cloudy
2:54 PM 81.0 °F 81.1 °F 57.9 °F 45% 30.14 in 10.0 mi North 9.2 mph - N/A   Mostly Cloudy
3:54 PM 84.0 °F 83.5 °F 57.9 °F 41% 30.13 in 10.0 mi North 6.9 mph - N/A   Scattered Clouds
4:54 PM 84.0 °F 83.5 °F 57.9 °F 41% 30.12 in 10.0 mi North 9.2 mph - N/A   Clear
5:54 PM 84.0 °F 83.8 °F 59.0 °F 43% 30.11 in 10.0 mi Variable 3.5 mph - N/A   Partly Cloudy
6:54 PM 80.1 °F 81.2 °F 62.1 °F 54% 30.10 in 10.0 mi SSE 4.6 mph - N/A   Mostly Cloudy
7:54 PM 79.0 °F - 63.0 °F 58% 30.11 in 10.0 mi Calm Calm - N/A   Mostly Cloudy
8:54 PM 75.9 °F - 64.0 °F 67% 30.11 in 10.0 mi Calm Calm - N/A   Mostly Cloudy
9:54 PM 75.0 °F - 63.0 °F 66% 30.12 in 10.0 mi Calm Calm - N/A   Clear
10:54 PM 73.0 °F - 62.1 °F 68% 30.12 in 10.0 mi Calm Calm - N/A   Clear
11:54 PM 70.0 °F - 63.0 °F 78% 30.12 in 10.0 mi SSE 4.6 mph - N/A   Clear